TimeEST,TemperatureF,Dew PointF,Humidity,Sea Level PressureIn,VisibilityMPH,Wind Direction,Wind SpeedMPH,Gust SpeedMPH,PrecipitationIn,Events,Conditions,WindDirDegrees,DateUTC
12:15 AM,35.6,35.6,100,29.71,10.0,Calm,Calm,-,N/A,,Scattered Clouds,0,2013-02-28 05:15:00
1:15 AM,37.4,35.6,93,29.71,10.0,WNW,3.5,-,N/A,,Clear,290,2013-02-28 06:15:00
1:35 AM,37.4,35.6,93,29.70,10.0,WNW,3.5,-,N/A,,Scattered Clouds,290,2013-02-28 06:35:00
1:55 AM,37.4,33.8,87,29.69,-9999.0,Calm,Calm,-,N/A,,Unknown,0,2013-02-28 06:55:00
2:15 AM,33.8,33.8,100,29.69,10.0,Calm,Calm,-,N/A,,Mostly Cloudy,0,2013-02-28 07:15:00
2:35 AM,35.6,35.6,100,29.69,10.0,Calm,Calm,-,N/A,,Overcast,0,2013-02-28 07:35:00
2:55 AM,37.4,35.6,93,29.69,10.0,Calm,Calm,-,N/A,,Overcast,0,2013-02-28 07:55:00
3:15 AM,37.4,35.6,93,29.68,10.0,Calm,Calm,-,N/A,,Overcast,0,2013-02-28 08:15:00
3:35 AM,37.4,37.4,100,29.69,10.0,Calm,Calm,-,N/A,,Overcast,0,2013-02-28 08:35:00
3:55 AM,37.4,35.6,93,29.69,10.0,Calm,Calm,-,N/A,,Overcast,0,2013-02-28 08:55:00
4:15 AM,37.4,37.4,100,29.70,10.0,Calm,Calm,-,N/A,,Overcast,0,2013-02-28 09:15:00
4:35 AM,37.4,37.4,100,29.70,10.0,Calm,Calm,-,N/A,,Overcast,0,2013-02-28 09:35:00
4:55 AM,37.4,35.6,93,29.71,10.0,Calm,Calm,-,N/A,,Mostly Cloudy,0,2013-02-28 09:55:00
5:15 AM,39.2,35.6,87,29.71,10.0,SW,3.5,-,N/A,,Overcast,230,2013-02-28 10:15:00
5:35 AM,37.4,35.6,93,29.72,10.0,SW,3.5,-,N/A,,Mostly Cloudy,230,2013-02-28 10:35:00
5:55 AM,39.2,35.6,87,29.72,10.0,SW,4.6,-,N/A,,Mostly Cloudy,230,2013-02-28 10:55:00
6:15 AM,41.0,35.6,81,29.73,-9999.0,West,5.8,-,N/A,,Overcast,260,2013-02-28 11:15:00
6:35 AM,39.2,33.8,81,29.73,10.0,WSW,4.6,-,N/A,,Scattered Clouds,250,2013-02-28 11:35:00
6:55 AM,39.2,33.8,81,29.73,10.0,WSW,4.6,-,N/A,,Clear,240,2013-02-28 11:55:00
7:15 AM,39.2,33.8,81,29.73,10.0,WSW,6.9,-,N/A,,Clear,250,2013-02-28 12:15:00
7:35 AM,41.0,33.8,76,29.73,10.0,WSW,5.8,-,N/A,,Clear,240,2013-02-28 12:35:00
7:55 AM,41.0,33.8,76,29.74,10.0,WSW,6.9,-,N/A,,Clear,250,2013-02-28 12:55:00
8:15 AM,41.0,33.8,76,29.75,-9999.0,West,8.1,-,N/A,,Clear,260,2013-02-28 13:15:00
8:35 AM,42.8,32.0,66,29.75,-9999.0,WSW,6.9,-,N/A,,Clear,250,2013-02-28 13:35:00
8:55 AM,44.6,32.0,61,29.74,10.0,WSW,5.8,-,N/A,,Clear,250,2013-02-28 13:55:00
9:15 AM,44.6,32.0,61,29.75,-9999.0,WSW,11.5,16.1,N/A,,Clear,240,2013-02-28 14:15:00
9:35 AM,44.6,32.0,61,29.75,10.0,SW,9.2,-,N/A,,Scattered Clouds,230,2013-02-28 14:35:00
9:55 AM,44.6,28.4,53,29.75,10.0,West,13.8,19.6,N/A,,Overcast,260,2013-02-28 14:55:00
10:15 AM,44.6,28.4,53,29.75,10.0,West,9.2,18.4,N/A,,Overcast,260,2013-02-28 15:15:00
10:35 AM,44.6,28.4,53,29.74,10.0,WSW,10.4,16.1,N/A,,Overcast,250,2013-02-28 15:35:00
10:55 AM,46.4,28.4,50,29.73,10.0,West,5.8,-,N/A,,Overcast,260,2013-02-28 15:55:00
11:15 AM,46.4,26.6,46,29.74,-9999.0,West,12.7,19.6,N/A,,Overcast,270,2013-02-28 16:15:00
11:35 AM,46.4,28.4,50,29.74,10.0,WSW,10.4,-,N/A,,Overcast,240,2013-02-28 16:35:00
11:55 AM,46.4,26.6,46,29.73,10.0,West,9.2,21.9,N/A,,Overcast,260,2013-02-28 16:55:00
12:15 PM,50.0,26.6,40,29.73,10.0,WSW,11.5,21.9,N/A,,Overcast,250,2013-02-28 17:15:00
12:35 PM,50.0,28.4,43,29.72,10.0,WSW,16.1,20.7,N/A,,Mostly Cloudy,250,2013-02-28 17:35:00
12:55 PM,48.2,28.4,46,29.71,10.0,West,12.7,17.3,N/A,,Overcast,280,2013-02-28 17:55:00
1:35 PM,46.4,28.4,50,29.71,10.0,WSW,13.8,19.6,N/A,,Overcast,240,2013-02-28 18:35:00
1:55 PM,46.4,28.4,50,29.71,10.0,WSW,12.7,23.0,N/A,,Overcast,250,2013-02-28 18:55:00
2:15 PM,46.4,28.4,50,29.71,10.0,WSW,9.2,17.3,N/A,,Overcast,250,2013-02-28 19:15:00
2:55 PM,46.4,28.4,50,29.72,10.0,West,12.7,20.7,N/A,,Overcast,270,2013-02-28 19:55:00
3:15 PM,46.4,28.4,50,29.72,10.0,West,11.5,17.3,N/A,,Overcast,270,2013-02-28 20:15:00
3:35 PM,46.4,28.4,50,29.72,10.0,West,13.8,23.0,N/A,,Mostly Cloudy,270,2013-02-28 20:35:00
3:55 PM,44.6,26.6,49,29.72,10.0,West,11.5,21.9,N/A,,Overcast,270,2013-02-28 20:55:00
4:15 PM,46.4,28.4,50,29.72,10.0,West,9.2,-,N/A,,Overcast,260,2013-02-28 21:15:00
4:35 PM,46.4,28.4,50,29.73,10.0,WSW,12.7,17.3,N/A,,Overcast,250,2013-02-28 21:35:00
4:55 PM,44.6,26.6,49,29.73,-9999.0,West,15.0,19.6,N/A,,Overcast,260,2013-02-28 21:55:00
5:15 PM,44.6,26.6,49,29.73,10.0,WSW,6.9,-,N/A,,Scattered Clouds,250,2013-02-28 22:15:00
5:35 PM,44.6,26.6,49,29.74,10.0,WSW,11.5,16.1,N/A,,Clear,240,2013-02-28 22:35:00
5:55 PM,44.6,26.6,49,29.75,10.0,WSW,4.6,-,N/A,,Clear,250,2013-02-28 22:55:00
6:15 PM,42.8,26.6,53,29.76,-9999.0,West,5.8,-,N/A,,Clear,260,2013-02-28 23:15:00
6:35 PM,41.0,26.6,57,29.77,10.0,West,3.5,-,N/A,,Clear,260,2013-02-28 23:35:00
6:55 PM,41.0,26.6,57,29.78,10.0,WSW,5.8,-,N/A,,Clear,240,2013-02-28 23:55:00
7:15 PM,41.0,26.6,57,29.79,10.0,Calm,Calm,-,N/A,,Clear,0,2013-03-01 00:15:00
7:35 PM,35.6,28.4,75,29.79,10.0,Calm,Calm,-,N/A,,Clear,0,2013-03-01 00:35:00
7:55 PM,39.2,26.6,61,29.80,10.0,Calm,Calm,-,N/A,,Clear,0,2013-03-01 00:55:00
8:15 PM,37.4,28.4,70,29.80,10.0,West,4.6,-,N/A,,Clear,260,2013-03-01 01:15:00
8:35 PM,39.2,28.4,65,29.81,10.0,WSW,8.1,16.1,N/A,,Clear,250,2013-03-01 01:35:00
8:55 PM,41.0,26.6,57,29.81,10.0,West,9.2,17.3,N/A,,Clear,260,2013-03-01 01:55:00
9:15 PM,39.2,26.6,61,29.81,10.0,West,6.9,16.1,N/A,,Clear,260,2013-03-01 02:15:00
9:35 PM,39.2,28.4,65,29.81,10.0,West,6.9,-,N/A,,Clear,260,2013-03-01 02:35:00
9:55 PM,37.4,28.4,70,29.81,10.0,West,9.2,-,N/A,,Clear,260,2013-03-01 02:55:00
10:15 PM,37.4,28.4,70,29.82,10.0,WSW,6.9,-,N/A,,Clear,250,2013-03-01 03:15:00
10:35 PM,37.4,28.4,70,29.82,10.0,WSW,6.9,-,N/A,,Clear,250,2013-03-01 03:35:00
11:15 PM,37.4,28.4,70,29.83,10.0,WSW,9.2,-,N/A,,Clear,250,2013-03-01 04:15:00
11:35 PM,35.6,28.4,75,29.83,10.0,WSW,5.8,-,N/A,,Clear,250,2013-03-01 04:35:00
11:55 PM,35.6,28.4,75,29.82,10.0,WSW,6.9,-,N/A,,Clear,250,2013-03-01 04:55:00